Вернуться в каталог

ONEWEB-0495

АктивенСвязьPO
NORAD 54115·PAYLOAD·🇬🇧 United Kingdom

Запущен Oct 22, 2022 с Satish Dhawan Space Centre

Loading…

Ближайшие Пролёты (ближайшие 24 часа)

TLE

СвежийSource: CelesTrak SupGP

Эпоха: Sep 14, 2026, 15:00 UTC

1 54115C 22138C   26257.62550185 -.00000665  00000+0 -16635-2 0  2574
2 54115  87.9109 287.1520 0002183  76.6527  37.1274 13.19729446    15

Отслеживайте ONEWEB-0495 в реальном времени с AllMySat

Download on the App Store